User: anonymous   Login
Location: Alfords
(31.4624°N, 83.9238°W)
Time: 08:48:28
(UTC+00:00)
Language:

Hubble Space Telescope - Orbit

View from above orbital plane
View from above orbital plane
View from above satellite
View from above satellite

Ground track
Ground track

The orbit data is extracted from the following two-line orbital elements,

1 20580U 90037B   21290.82703947  .00000967  00000-0  47406-4 0  9995
2 20580  28.4711 335.2961 0002416 304.2671 219.2211 15.09784887529501
Epoch (UTC): 17 October 2021 19:50:56
Eccentricity: 0.0002416
inclination: 28.4711°
perigee height: 535 km
apogee height: 538 km
right ascension of ascending node: 335.2961°
argument of perigee: 304.2671°
revolutions per day: 15.09784887
mean anomaly at epoch: 219.2211°
orbit number at epoch: 52950

The dashed part of the orbit path shows where the satellite is in the earth's shadow,  

DLR